Location: Lelese
(45.7333°N, 22.7000°E)
Time: 10:05:31
(UTC+00:00)

Daily predictions for brighter satellites

Satellite Brightness Start Highest point End
(mag) Time Altitude Azimuth Time Altitude Azimuth Time Altitude Azimuth
USA 186 2.0 17:48:12 10° SSE 17:51:06 44° ENE 17:53:59 10° N
Cosmos 1825 3.4 17:48:49 10° NNW 17:52:06 41° W 17:55:21 10° SSW
SL-27 R/B 2.3 17:49:43 10° N 17:52:31 45° ENE 17:55:17 10° SE
Okean O Rocket 2.2 17:48:51 10° SE 17:52:54 40° ENE 17:57:01 10° N
Cosmos 1486 Rocket 4.4 17:49:47 10° N 17:54:49 46° ENE 17:59:47 10° SE
Cosmos 1782 Rocket 3.7 17:52:09 10° S 17:56:32 83° W 18:00:59 10° N
CZ-4 R/B 1.5 17:55:42 10° S 17:59:37 76° WSW 18:03:29 10° NNW
NOSS 3-1 (A) 3.3 17:57:47 10° S 18:02:24 46° ESE 18:07:50 10° NE
SJ 16-02 2.8 18:02:34 10° NW 18:06:37 39° WSW 18:10:36 10° S
Resurs 01 Rocket 1.7 18:03:09 10° SSE 18:07:29 58° ENE 18:11:50 10° N
CZ-4B R/B 4.4 18:05:39 10° SSW 18:08:59 33° W 18:12:14 10° NNW
DELTA 2 DEB (DPAF) 4.0 18:06:08 10° NNE 18:10:21 62° ESE 18:14:32 10° S
USA 229 DEB 4.5 18:07:00 10° SSE 18:11:34 23° ESE 18:16:26 10° ENE
USA 229 4.5 18:07:07 10° SSE 18:11:41 22° ESE 18:16:31 10° ENE
Cosmos 1300 Rocket 4.0 18:10:44 10° SSW 18:15:05 67° W 18:19:29 10° N
USA 234 3.3 18:11:15 10° SE 18:17:43 90° SSE 18:24:18 10° NW
USA 281 3.5 18:12:17 10° SE 18:18:40 56° ENE 18:25:04 10° NNW
NOSS 3-1 (C) 3.6 18:17:55 10° SW 18:22:49 64° NW 18:28:44 10° NE
Cosmos 2151 Rocket 4.0 18:20:14 10° SSE 18:24:20 40° E 18:28:30 10° NNE
Tiangong -0.6 18:22:11 10° SSW 18:24:30 19° SSE 18:25:14 18° SE
Cosmos 2227 Rocket 3.8 18:22:38 10° N 18:26:47 20° NE 18:30:32 11° E
CSL-04 Debris 4.3 18:24:39 10° S 18:30:05 79° WSW 18:35:35 10° NNW
ATLAS CENTAUR R/B 3.7 18:31:23 10° NNE 18:32:17 11° NNE 18:33:10 10° NE
ATLAS 3B R/B 2.9 18:29:07 10° SW 18:36:11 87° SE 18:43:49 10° NE
Cosmos 1697 Rocket 4.1 18:37:21 16° ESE 18:37:38 16° E 18:41:02 10° ENE
CSL-04 Rocket 3.9 18:33:04 10° S 18:38:35 73° WSW 18:44:03 10° NNW
Cosmos 371 Rocket 3.3 18:34:26 10° NNW 18:39:12 63° ENE 18:42:31 19° SE
SL-4 R/B 3.0 18:37:08 10° WNW 18:40:28 33° N 18:43:07 13° ENE
COSMOS 2455 3.7 18:35:26 10° NNW 18:40:59 36° NE 18:44:51 18° ESE
Iridium 2 3.8 18:39:00 10° NNE 18:41:43 33° E 18:42:18 30° ESE
Cosmos 1777 Rocket 4.2 18:36:45 10° NNW 18:41:58 59° ENE 18:45:33 20° SE
Cosmos 304 Rocket 3.9 18:38:30 10° NNW 18:43:12 56° ENE 18:46:06 22° SE
Okean 2 Rocket 3.1 18:41:54 10° S 18:46:21 65° E 18:50:50 10° NNE
SPOT 5 3.3 18:46:54 20° SE 18:50:22 52° ENE 18:55:27 10° N
CZ-4C R/B 3.7 18:45:24 10° NNW 18:51:48 39° NE 18:57:31 17° E
Cosmos 2297 Rocket 2.6 18:50:17 10° NNW 18:55:47 50° ENE 18:58:46 26° ESE
Spot 2 Rocket 4.4 18:56:17 24° ESE 18:58:16 32° ENE 19:02:42 10° N
Cosmos 405 Rocket 4.2 18:59:06 19° ENE 18:59:06 19° ENE 19:01:09 10° NE
Cosmos 1503 Rocket 4.1 18:54:09 10° NNW 18:59:33 82° WSW 19:03:16 20° SSE
Cosmos 1656 3.6 18:55:12 10° S 19:00:40 61° ESE 19:06:07 10° NNE
BlueWalker 3 1.8 18:58:38 10° SW 19:02:27 85° SSE 19:06:06 11° ENE
Cosmos 1354 Rocket 4.0 18:57:06 10° NNW 19:02:28 81° ENE 19:05:34 26° SSE
Terra 2.6 19:01:25 27° ESE 19:03:03 36° ENE 19:07:21 10° N
ATLAS 5 CENTAUR R/B 3.5 19:03:46 10° W 19:06:38 24° NW 19:09:46 10° NNE
Iridium 4 Rocket 3.7 19:04:24 19° SSE 19:08:21 67° E 19:14:08 10° N
Cosmos 1455 Rocket 4.0 19:09:45 29° E 19:09:49 29° E 19:13:38 10° NNE
Okean 1 Rocket 3.0 19:06:57 21° S 19:09:53 71° E 19:14:21 10° NNE
Sich 1 Rocket 3.8 19:05:33 10° SSW 19:09:56 71° W 19:14:24 10° N
Cosmos 332 Rocket 4.2 19:06:56 10° NNW 19:11:40 48° ENE 19:13:17 35° ESE
USA 245 4.1 19:09:43 32° SE 19:11:49 52° ENE 19:16:06 10° N
Okean-O 3.1 19:11:08 18° S 19:14:15 58° W 19:18:37 10° NNW
Ariane Rocket 3.4 19:16:22 34° ESE 19:18:00 47° ENE 19:22:49 10° N
Cosmos 1763 Rocket 3.7 19:17:53 36° SE 19:19:16 45° ESE 19:24:09 10° NNE
CZ-4C R/B 4.0 19:18:24 10° N 19:21:41 45° WNW 19:24:53 10° SW
Cosmos 2263 Rocket 3.8 19:18:06 10° N 19:22:15 20° NE 19:24:25 17° ENE
USA 267 4.3 19:18:26 10° NE 19:24:34 44° NNW 19:30:42 10° W
Cosmos 1437 Rocket 3.4 19:21:48 10° N 19:25:29 40° ENE 19:25:29 40° ENE
Cosmos 44 3.4 19:20:09 10° SSW 19:25:32 73° ESE 19:30:53 10° NE
Genesis I 3.3 19:22:50 10° NW 19:26:24 56° WSW 19:26:55 50° SSW
BREEZE-M R/B 2.8 19:25:53 10° WNW 19:27:40 44° WNW 19:27:40 44° WNW
Okean O Rocket 3.9 19:26:01 10° SW 19:29:20 21° W 19:32:43 10° NW
Cosmos 990 Rocket 4.1 19:25:24 10° NNW 19:30:31 59° ENE 19:31:51 44° ESE
Cosmos 1605 Rocket 4.0 19:25:01 10° N 19:31:27 79° E 19:34:29 33° SSE
Aureole 1 Rocket 3.8 19:32:39 10° N 19:34:29 26° NNE 19:34:29 26° NNE
Cosmos 540 Rocket 3.6 19:39:04 48° ESE 19:39:12 48° ESE 19:44:07 10° NNE
Resurs 01 Rocket 4.3 19:41:43 10° SW 19:44:18 15° W 19:46:53 10° NW
MOS 1 Rocket 3.6 19:46:11 44° ENE 19:46:11 44° ENE 19:50:15 10° N
Cosmos 2058 3.6 19:47:20 10° N 19:50:33 41° NE 19:50:33 41° NE
Cosmos 468 Rocket 3.9 19:51:31 59° ESE 19:51:41 59° ESE 19:56:49 10° NNE
ERS-1 Rocket 3.1 19:51:26 45° SSW 19:52:53 69° WSW 19:57:55 10° NNW
CENTAUR R/B 3.7 19:45:20 10° NW 19:53:11 51° NE 19:57:39 29° E
SPOT 3 Rocket 3.4 19:55:09 58° SSE 19:56:14 89° ENE 20:01:27 10° NNW
USA 229 DEB 3.7 19:55:34 10° SW 20:01:41 74° NW 20:08:29 10° NE
USA 229 3.7 19:55:39 10° SW 20:01:47 75° NW 20:08:35 10° NE
Cosmos 1727 Rocket 3.9 20:04:27 53° SSE 20:05:58 74° E 20:12:13 10° NNE
Landsat 5 3.9 20:03:38 10° NNE 20:06:58 53° NNE 20:06:58 53° NNE
Cosmos 2100 Rocket 4.1 20:02:20 10° N 20:08:37 59° ENE 20:09:32 53° ESE
ATLAS CENTAUR R/B 2.1 20:07:05 10° NNW 20:09:58 44° N 20:09:58 44° N
Cosmos 2227 Rocket 2.1 20:05:51 10° NNW 20:11:34 83° WSW 20:12:21 67° S
Cosmos 1980 Rocket 3.0 20:13:32 37° ENE 20:13:32 37° ENE 20:17:25 10° NE
Cosmos 1000 Rocket 4.4 20:17:02 61° ESE 20:17:27 63° E 20:23:31 10° NNE
Cosmos 1892 Rocket 4.3 20:13:52 10° NNW 20:18:01 46° W 20:18:09 45° W
Cosmos 292 Rocket 3.9 20:14:09 10° NNW 20:18:28 62° NE 20:18:28 62° NE
SL-4 R/B 3.4 20:16:04 10° WNW 20:17:57 29° WNW 20:17:57 29° WNW
Cosmos 1697 Rocket 2.7 20:18:57 44° SW 20:20:51 79° WNW 20:26:34 10° NNE
Cosmos 2123 Rocket 4.4 20:21:07 46° E 20:21:07 46° E 20:26:59 10° NNE
Cosmos 1937 Rocket 3.7 20:18:28 10° NNW 20:23:39 61° ENE 20:23:39 61° ENE
COSMOS 2455 3.3 20:21:18 10° NW 20:27:05 49° WSW 20:27:59 45° SW
MetOp-A 4.5 20:30:40 41° NW 20:30:40 41° NW 20:33:17 10° NNW
Cosmos 405 Rocket 4.5 20:33:26 28° WNW 20:33:26 28° WNW 20:36:37 10° NNW
Cosmos 1898 Rocket 3.5 20:31:05 10° NNW 20:36:04 76° WNW 20:36:04 76° WNW
ARIANE 5 R/B 3.8 20:39:49 37° NNE 20:39:49 37° NNE 20:42:58 10° N
USA 81 4.4 20:38:46 56° WSW 20:39:16 58° W 20:44:29 10° N
Cosmos 2297 Rocket 3.6 20:34:51 10° NW 20:39:31 27° WSW 20:40:35 25° WSW
Terra 3.3 20:40:08 27° WSW 20:40:41 28° W 20:44:45 10° NW
CZ-4C R/B 3.1 20:33:34 10° NW 20:40:51 71° WSW 20:42:37 56° S
BlueWalker 3 3.8 20:37:34 10° WNW 20:40:36 30° NNW 20:40:36 30° NNW
Meteor 2-13 Rocket 4.4 20:43:01 66° SW 20:43:51 77° W 20:50:03 10° N
Cosmos 2369 4.3 20:45:58 46° NE 20:45:58 46° NE 20:50:04 10° NNE
Meteor 2-1 Rocket 4.2 20:45:49 73° W 20:45:55 74° WNW 20:51:28 10° N
Meteor 2-8 Rocket 4.5 20:43:36 10° N 20:49:38 65° ENE 20:49:38 65° ENE
Cosmos 1725 Rocket 3.9 20:44:21 10° N 20:50:29 71° ENE 20:50:29 71° ENE
Cosmos 2233 Rocket 4.4 20:45:00 10° N 20:50:44 48° ENE 20:50:44 48° ENE
Cosmos 1459 Rocket 3.9 20:45:44 10° NNW 20:51:48 76° W 20:52:04 74° WSW
Cosmos 2219 3.4 20:49:19 10° NNW 20:54:33 65° W 20:54:33 65° W
Cosmos 2061 Rocket 4.2 20:50:45 10° N 20:57:03 61° ENE 20:57:03 61° ENE
Cosmos 2263 Rocket 2.4 21:01:13 10° NNW 21:06:06 67° NW 21:06:06 67° NW
Cosmos 2082 4.0 21:07:40 10° NNW 21:12:29 62° WNW 21:12:29 62° WNW
NOSS 3-2 (A) 3.9 21:11:27 10° NW 21:18:57 89° NE 21:19:58 72° SE
Cosmos 2322 Rocket 4.2 21:22:13 16° ENE 21:22:13 16° ENE 21:23:45 10° NE
Meteor 2-3 Rocket 4.2 21:14:36 10° NNW 21:19:41 53° WNW 21:19:41 53° WNW
SL-16 R/B 3.4 21:41:08 33° NE 21:41:08 33° NE 21:44:21 10° NE
CENTAUR R/B 3.4 21:36:03 10° NW 21:44:16 57° WSW 21:44:48 57° SW
Cosmos 1844 Rocket 3.5 21:45:57 10° NNW 21:50:30 47° NNE 21:50:30 47° NNE
Cosmos 1980 Rocket 3.5 21:55:14 31° WNW 21:56:13 33° NW 22:01:17 10° N
Cosmos 2278 4.4 22:02:49 51° NNE 22:02:49 51° NNE 22:07:02 10° NNE
Lacrosse 4 Rocket 4.0 22:33:41 18° N 22:33:41 18° N 22:35:12 10° N
H-2A R/B 4.2 22:29:04 10° N 22:30:48 24° N 22:30:48 24° N
NOSS 3-2 (C) 4.1 22:27:33 10° NW 22:34:32 66° W 22:34:32 66° W
Cosmos 1464 Rocket 4.3 22:39:36 10° NNW 22:44:59 62° NW 22:44:59 62° NW
USA 267 4.2 22:42:39 10° E 22:48:47 45° NNE 22:54:57 10° NW
Cosmos 2360 Rocket 2.9 22:51:06 50° NNE 22:51:06 50° NNE 22:55:14 10° NNE
Cosmos 2333 Rocket 2.8 23:03:47 54° NNE 23:03:47 54° NNE 23:08:06 10° NNE
Cosmos 2322 Rocket 2.9 23:03:59 49° NNW 23:03:59 49° NNW 23:08:32 10° NNE
Cosmos 2219 Rocket 3.0 23:05:42 44° NE 23:05:42 44° NE 23:09:39 10° NNE
Lacrosse 5 3.1 23:05:56 39° NNE 23:05:56 39° NNE 23:09:21 10° NE
Cosmos 2278 Rocket 4.2 23:01:12 10° N 23:05:45 24° NE 23:09:02 15° E
Cosmos 2034 Rocket 4.3 23:01:55 10° NNW 23:07:00 59° NW 23:07:00 59° NW
CZ-2D R/B 4.2 23:11:39 10° NE 23:15:07 17° E 23:15:10 17° E
SL-16 R/B 3.6 23:22:57 29° NW 23:23:13 29° NW 23:28:08 10° N
Cosmos 1634 Rocket 4.0 23:22:41 10° N 23:28:37 78° N 23:28:37 78° N
USA 238 DEB 4.5 23:27:31 10° NW 23:32:58 43° W 23:32:58 43° W
USA 238 4.5 23:27:36 10° NW 23:33:05 44° W 23:33:05 44° W
IDEFIX/ARIANE 42P 3.8 23:35:30 10° NNE 23:39:49 33° E 23:39:49 33° E
Resurs 1-4 Rocket 3.5 23:36:01 10° NE 23:40:30 29° E 23:40:30 29° E
Cosmos 1943 Rocket 4.1 23:38:33 10° N 23:43:18 26° NE 23:48:01 10° ESE
NOSS 2-2 (E) 4.5 23:48:03 10° NNW 23:52:11 55° NE 23:52:11 55° NE
